| time (UTC) | temp C | wind direction | speed KPH | gust KPH | rain 1hr cm | rain 24hr cm | rain mn cm | humidity % | barometer mb |
| 20260906181030 | 36 | 133 | 0.0 | 1.6 | 0.00 | 0.00 | 0.00 | 44 | 1016.2 |
| 20260906180131 | 35 | 157 | 0.0 | 3.2 | 0.00 | 0.00 | 0.00 | 45 | 1016.4 |
| 20260906175030 | 35 | 32 | 0.0 | 1.6 | 0.00 | 0.00 | 0.00 | 46 | 1016.4 |
| 20260906174030 | 35 | 14 | 1.6 | 4.8 | 0.00 | 0.00 | 0.00 | 46 | 1016.6 |
| 20260906173031 | 35 | 91 | 1.6 | 4.8 | 0.00 | 0.00 | 0.00 | 47 | 1016.8 |
| 20260906172029 | 35 | 1 | 1.6 | 6.4 | 0.00 | 0.00 | 0.00 | 48 | 1016.9 |
| 20260906171031 | 35 | 106 | 1.6 | 4.8 | 0.00 | 0.00 | 0.00 | 47 | 1017.2 |
| 20260906170030 | 35 | 179 | 0.0 | 1.6 | 0.00 | 0.00 | 0.00 | 48 | 1017.2 |
| 20260906165031 | 36 | 132 | 0.0 | 3.2 | 0.00 | 0.00 | 0.00 | 47 | 1017.2 |
| 20260906164030 | 36 | 169 | 3.2 | 4.8 | 0.00 | 0.00 | 0.00 | 47 | 1017.4 |
| 20260906163030 | 35 | 128 | 0.0 | 1.6 | 0.00 | 0.00 | 0.00 | 50 | 1017.5 |
| 20260906162030 | 35 | 46 | 1.6 | 4.8 | 0.00 | 0.00 | 0.00 | 49 | 1017.3 |
| 20260906161030 | 34 | 359 | 1.6 | 6.4 | 0.00 | 0.00 | 0.00 | 49 | 1017.2 |
| 20260906160030 | 34 | 26 | 0.0 | 4.8 | 0.00 | 0.00 | 0.00 | 50 | 1017.3 |
| 20260906155030 | 33 | 103 | 0.0 | 3.2 | 0.00 | 0.00 | 0.00 | 52 | 1017.1 |
| 20260906154030 | 33 | 101 | 1.6 | 4.8 | 0.00 | 0.00 | 0.00 | 53 | 1017.2 |
| 20260906153050 | 33 | 56 | 0.0 | 3.2 | 0.00 | 0.00 | 0.00 | 53 | 1017.1 |
| 20260906152030 | 33 | 105 | 1.6 | 4.8 | 0.00 | 0.00 | 0.00 | 54 | 1017.1 |
| 20260906151031 | 32 | 143 | 0.0 | 3.2 | 0.00 | 0.00 | 0.00 | 56 | 1017.0 |
| 20260906150030 | 32 | 106 | 0.0 | 3.2 | 0.00 | 0.00 | 0.00 | 55 | 1017.1 |
| 20260906145110 | 32 | 124 | 0.0 | 1.6 | 0.00 | 0.00 | 0.00 | 57 | 1017.1 |
| 20260906144031 | 31 | 55 | 1.6 | 4.8 | 0.00 | 0.00 | 0.00 | 58 | 1017.1 |
| 20260906143030 | 31 | 5 | 1.6 | 3.2 | 0.00 | 0.00 | 0.00 | 58 | 1017.2 |
| 20260906142050 | 31 | 115 | 0.0 | 4.8 | 0.00 | 0.00 | 0.00 | 60 | 1017.0 |
| 20260906141030 | 30 | 84 | 0.0 | 1.6 | 0.00 | 0.00 | 0.00 | 60 | 1017.0 |
| 20260906140030 | 30 | 0 | 1.6 | 3.2 | 0.00 | 0.00 | 0.00 | 63 | 1017.1 |
| 20260906135030 | 30 | 4 | 0.0 | 3.2 | 0.00 | 0.00 | 0.00 | 63 | 1016.9 |
| 20260906134030 | 29 | 76 | 1.6 | 3.2 | 0.00 | 0.00 | 0.00 | 63 | 1016.8 |
| 20260906133031 | 28 | 127 | 0.0 | 1.6 | 0.00 | 0.00 | 0.00 | 64 | 1016.8 |
| 20260906132030 | 27 | 34 | 0.0 | 1.6 | 0.00 | 0.00 | 0.00 | 68 | 1016.7 |
| 20260906131031 | 26 | 0.0 | 0.0 | 0.00 | 0.00 | 0.00 | 71 | 1016.6 | |
| 20260906130031 | 26 | 0.0 | 0.0 | 0.00 | 0.00 | 0.00 | 72 | 1016.4 | |
| 20260906125030 | 26 | 87 | 0.0 | 1.6 | 0.00 | 0.00 | 0.00 | 72 | 1016.3 |
| 20260906124031 | 25 | 0.0 | 0.0 | 0.00 | 0.00 | 0.00 | 74 | 1016.1 | |
| 20260906123030 | 25 | 0.0 | 0.0 | 0.00 | 0.00 | 0.00 | 75 | 1016.1 | |
| 20260906122050 | 25 | 0.0 | 0.0 | 0.00 | 0.00 | 0.00 | 77 | 1016.0 | |
| 20260906121030 | 24 | 0.0 | 0.0 | 0.00 | 0.00 | 0.00 | 78 | 1015.9 | |
| 20260906120030 | 24 | 0.0 | 0.0 | 0.00 | 0.00 | 0.00 | 79 | 1015.8 | |
| 20260906115030 | 25 | 0.0 | 0.0 | 0.00 | 0.00 | 0.00 | 77 | 1016.0 | |
| 20260906114030 | 25 | 0.0 | 0.0 | 0.00 | 0.00 | 0.00 | 77 | 1015.9 | |
| 20260906113030 | 25 | 0.0 | 0.0 | 0.00 | 0.00 | 0.00 | 77 | 1015.8 | |
| 20260906112030 | 25 | 0.0 | 0.0 | 0.00 | 0.00 | 0.00 | 78 | 1015.8 | |
| 20260906111029 | 25 | 0.0 | 0.0 | 0.00 | 0.00 | 0.00 | 79 | 1015.7 | |
| 20260906110050 | 24 | 0.0 | 0.0 | 0.00 | 0.00 | 0.00 | 80 | 1015.6 | |
| 20260906105050 | 24 | 0.0 | 0.0 | 0.00 | 0.00 | 0.00 | 80 | 1015.7 | |
| 20260906104030 | 24 | 0.0 | 0.0 | 0.00 | 0.00 | 0.00 | 80 | 1015.7 | |
| 20260906103030 | 24 | 0.0 | 0.0 | 0.00 | 0.00 | 0.00 | 80 | 1015.5 | |
| 20260906102030 | 25 | 0.0 | 0.0 | 0.00 | 0.00 | 0.00 | 79 | 1015.6 | |
| 20260906101030 | 24 | 0.0 | 0.0 | 0.00 | 0.00 | 0.00 | 80 | 1015.4 | |
| 20260906100030 | 24 | 0.0 | 0.0 | 0.00 | 0.00 | 0.00 | 80 | 1015.5 | |
| 20260906095030 | 25 | 0.0 | 0.0 | 0.00 | 0.00 | 0.00 | 80 | 1015.3 | |
| 20260906094030 | 25 | 0.0 | 0.0 | 0.00 | 0.00 | 0.00 | 79 | 1015.4 | |
| 20260906093030 | 25 | 0.0 | 0.0 | 0.00 | 0.00 | 0.00 | 77 | 1015.3 | |
| 20260906092030 | 25 | 0.0 | 0.0 | 0.00 | 0.00 | 0.00 | 76 | 1015.3 | |
| 20260906091030 | 25 | 0.0 | 0.0 | 0.00 | 0.00 | 0.00 | 75 | 1015.2 | |
| 20260906090030 | 25 | 0.0 | 0.0 | 0.00 | 0.00 | 0.00 | 74 | 1015.1 | |
| 20260906085030 | 25 | 0.0 | 0.0 | 0.00 | 0.00 | 0.00 | 75 | 1015.1 | |
| 20260906084030 | 25 | 0.0 | 0.0 | 0.00 | 0.00 | 0.00 | 75 | 1015.0 | |
| 20260906083110 | 25 | 0.0 | 0.0 | 0.00 | 0.00 | 0.00 | 76 | 1015.1 | |
| 20260906082030 | 25 | 0.0 | 0.0 | 0.00 | 0.00 | 0.00 | 77 | 1014.9 | |
| 20260906081031 | 25 | 0.0 | 0.0 | 0.00 | 0.00 | 0.00 | 77 | 1015.0 | |
| 20260906080030 | 25 | 0.0 | 0.0 | 0.00 | 0.00 | 0.00 | 76 | 1015.0 | |
| 20260906075031 | 25 | 0.0 | 0.0 | 0.00 | 0.00 | 0.00 | 75 | 1014.9 | |
| 20260906074030 | 25 | 0.0 | 0.0 | 0.00 | 0.00 | 0.00 | 74 | 1015.0 | |
| 20260906073030 | 26 | 0.0 | 0.0 | 0.00 | 0.00 | 0.00 | 73 | 1015.1 | |
| 20260906072030 | 26 | 0.0 | 0.0 | 0.00 | 0.00 | 0.00 | 72 | 1014.9 | |
| 20260906071030 | 27 | 0.0 | 0.0 | 0.00 | 0.00 | 0.00 | 70 | 1015.1 | |
| 20260906070031 | 27 | 0.0 | 0.0 | 0.00 | 0.00 | 0.00 | 68 | 1015.1 | |
| 20260906065050 | 27 | 0.0 | 0.0 | 0.00 | 0.00 | 0.00 | 68 | 1015.1 | |
| 20260906064051 | 27 | 0.0 | 0.0 | 0.00 | 0.00 | 0.00 | 66 | 1015.2 | |
| 20260906063030 | 28 | 0.0 | 0.0 | 0.00 | 0.00 | 0.00 | 63 | 1015.2 | |
| 20260906062030 | 28 | 0.0 | 1.6 | 0.00 | 0.00 | 0.00 | 62 | 1015.2 | |
| 20260906061030 | 28 | 0.0 | 0.0 | 0.00 | 0.00 | 0.00 | 63 | 1015.3 | |
| 20260906060030 | 27 | 0.0 | 0.0 | 0.00 | 0.00 | 0.00 | 64 | 1015.4 | |
| 20260906055030 | 27 | 0.0 | 0.0 | 0.00 | 0.00 | 0.00 | 66 | 1015.5 | |
| 20260906054030 | 27 | 0.0 | 0.0 | 0.00 | 0.00 | 0.00 | 68 | 1015.5 | |
| 20260906053030 | 26 | 0.0 | 0.0 | 0.00 | 0.00 | 0.00 | 72 | 1015.5 | |
| 20260906052050 | 26 | 0.0 | 0.0 | 0.00 | 0.00 | 0.00 | 72 | 1015.6 | |
| 20260906051031 | 26 | 0.0 | 0.0 | 0.00 | 0.00 | 0.00 | 72 | 1015.5 | |
| 20260906050030 | 27 | 0.0 | 0.0 | 0.00 | 0.00 | 0.00 | 73 | 1015.4 | |
| 20260906045030 | 27 | 0.0 | 0.0 | 0.00 | 0.00 | 0.00 | 73 | 1015.5 | |
| 20260906044030 | 27 | 0.0 | 0.0 | 0.00 | 0.00 | 0.00 | 72 | 1015.6 | |
| 20260906043030 | 27 | 0.0 | 0.0 | 0.00 | 0.00 | 0.00 | 72 | 1015.5 | |
| 20260906042030 | 27 | 0.0 | 0.0 | 0.00 | 0.00 | 0.00 | 71 | 1015.3 | |
| 20260906041030 | 27 | 0.0 | 0.0 | 0.00 | 0.00 | 0.00 | 71 | 1015.3 | |
| 20260906040030 | 27 | 0.0 | 0.0 | 0.00 | 0.00 | 0.00 | 70 | 1015.4 | |
| 20260906035030 | 28 | 0.0 | 0.0 | 0.00 | 0.00 | 0.00 | 69 | 1015.2 | |
| 20260906034030 | 28 | 0.0 | 0.0 | 0.00 | 0.00 | 0.00 | 67 | 1015.2 | |
| 20260906033030 | 28 | 0.0 | 0.0 | 0.00 | 0.00 | 0.00 | 66 | 1015.0 | |
| 20260906032031 | 29 | 0.0 | 0.0 | 0.00 | 0.00 | 0.00 | 65 | 1015.1 | |
| 20260906031030 | 30 | 0.0 | 0.0 | 0.00 | 0.00 | 0.00 | 63 | 1014.9 | |
| 20260906030031 | 30 | 0.0 | 0.0 | 0.00 | 0.00 | 0.00 | 61 | 1014.8 | |
| 20260906025030 | 30 | 0.0 | 0.0 | 0.00 | 0.00 | 0.00 | 60 | 1014.6 | |
| 20260906024030 | 30 | 0.0 | 0.0 | 0.00 | 0.00 | 0.00 | 59 | 1014.6 | |
| 20260906023030 | 31 | 0.0 | 1.6 | 0.00 | 0.00 | 0.00 | 58 | 1014.3 | |
| 20260906022030 | 31 | 0.0 | 0.0 | 0.00 | 0.00 | 0.00 | 57 | 1014.2 | |
| 20260906021030 | 31 | 0.0 | 0.0 | 0.00 | 0.00 | 0.00 | 57 | 1014.2 | |
| 20260906020030 | 31 | 0.0 | 0.0 | 0.00 | 0.00 | 0.00 | 56 | 1014.0 | |
| 20260906015030 | 31 | 0.0 | 1.6 | 0.00 | 0.00 | 0.00 | 55 | 1014.1 | |
| 20260906014210 | 32 | 0.0 | 1.6 | 0.00 | 0.00 | 0.00 | 55 | 1013.8 | |
| 20260906013031 | 32 | 0.0 | 0.0 | 0.00 | 0.00 | 0.00 | 53 | 1013.7 | |
| 20260906012031 | 32 | 0.0 | 1.6 | 0.00 | 0.00 | 0.00 | 53 | 1013.7 | |
| 20260906011030 | 32 | 351 | 0.0 | 1.6 | 0.00 | 0.00 | 0.00 | 53 | 1013.7 |
| 20260906010050 | 32 | 125 | 0.0 | 1.6 | 0.00 | 0.00 | 0.00 | 53 | 1013.5 |
| 20260906005031 | 32 | 0.0 | 0.0 | 0.00 | 0.00 | 0.00 | 53 | 1013.6 | |
| 20260906004030 | 31 | 0.0 | 1.6 | 0.00 | 0.00 | 0.00 | 53 | 1013.4 | |
| 20260906003030 | 32 | 0.0 | 0.0 | 0.00 | 0.00 | 0.00 | 53 | 1013.4 | |
| 20260906002030 | 32 | 0.0 | 0.0 | 0.00 | 0.00 | 0.00 | 51 | 1013.5 | |
| 20260906001031 | 33 | 0.0 | 0.0 | 0.00 | 0.00 | 0.00 | 47 | 1013.4 | |
| 20260906000031 | 33 | 0.0 | 0.0 | 0.00 | 0.00 | 0.00 | 46 | 1013.4 | |
| 20260905235050 | 33 | 0.0 | 0.0 | 0.00 | 0.00 | 0.00 | 44 | 1013.4 | |
| 20260905234031 | 34 | 0.0 | 0.0 | 0.00 | 0.00 | 0.00 | 43 | 1013.4 | |
| 20260905233030 | 35 | 0.0 | 0.0 | 0.00 | 0.00 | 0.00 | 41 | 1013.4 | |
| 20260905232110 | 35 | 0.0 | 0.0 | 0.00 | 0.00 | 0.00 | 40 | 1013.4 | |
| 20260905231051 | 35 | 0.0 | 0.0 | 0.00 | 0.00 | 0.00 | 40 | 1013.3 | |
| 20260905230050 | 35 | 0.0 | 0.0 | 0.00 | 0.00 | 0.00 | 41 | 1013.4 | |
| 20260905225030 | 34 | 0.0 | 0.0 | 0.00 | 0.00 | 0.00 | 42 | 1013.4 | |
| 20260905224031 | 34 | 0.0 | 0.0 | 0.00 | 0.00 | 0.00 | 42 | 1013.4 | |
| 20260905223030 | 35 | 0.0 | 0.0 | 0.00 | 0.00 | 0.00 | 42 | 1013.5 | |
| 20260905222030 | 35 | 0.0 | 0.0 | 0.00 | 0.00 | 0.00 | 40 | 1013.5 | |
| 20260905221031 | 35 | 0.0 | 0.0 | 0.00 | 0.00 | 0.00 | 39 | 1013.7 | |
| 20260905220031 | 35 | 0.0 | 0.0 | 0.00 | 0.00 | 0.00 | 39 | 1013.6 | |
| 20260905215030 | 36 | 0.0 | 0.0 | 0.00 | 0.00 | 0.00 | 39 | 1013.8 | |
| 20260905214031 | 36 | 0.0 | 0.0 | 0.00 | 0.00 | 0.00 | 38 | 1013.9 | |
| 20260905213051 | 35 | 121 | 1.6 | 3.2 | 0.00 | 0.00 | 0.00 | 38 | 1014.0 |
| 20260905212030 | 35 | 0.0 | 1.6 | 0.00 | 0.00 | 0.00 | 40 | 1014.0 | |
| 20260905211031 | 36 | 106 | 0.0 | 3.2 | 0.00 | 0.00 | 0.00 | 38 | 1014.1 |
| 20260905210030 | 36 | 115 | 0.0 | 3.2 | 0.00 | 0.00 | 0.00 | 37 | 1014.2 |
| 20260905205031 | 36 | 118 | 0.0 | 3.2 | 0.00 | 0.00 | 0.00 | 37 | 1014.3 |
| 20260905204030 | 36 | 148 | 1.6 | 4.8 | 0.00 | 0.00 | 0.00 | 37 | 1014.4 |
| 20260905203030 | 36 | 154 | 1.6 | 3.2 | 0.00 | 0.00 | 0.00 | 37 | 1014.6 |
| 20260905202030 | 36 | 132 | 1.6 | 4.8 | 0.00 | 0.00 | 0.00 | 37 | 1014.8 |
| 20260905201030 | 36 | 117 | 1.6 | 4.8 | 0.00 | 0.00 | 0.00 | 37 | 1014.9 |
| 20260905200030 | 36 | 0.0 | 3.2 | 0.00 | 0.00 | 0.00 | 38 | 1015.0 | |
| 20260905195030 | 36 | 175 | 1.6 | 6.4 | 0.00 | 0.00 | 0.00 | 38 | 1015.2 |
| 20260905194030 | 36 | 155 | 0.0 | 1.6 | 0.00 | 0.00 | 0.00 | 38 | 1015.2 |
| 20260905193031 | 36 | 74 | 0.0 | 4.8 | 0.00 | 0.00 | 0.00 | 38 | 1015.3 |
| 20260905192030 | 36 | 134 | 0.0 | 4.8 | 0.00 | 0.00 | 0.00 | 40 | 1015.3 |
| 20260905191030 | 36 | 104 | 1.6 | 3.2 | 0.00 | 0.00 | 0.00 | 40 | 1015.5 |
| 20260905190031 | 36 | 155 | 0.0 | 3.2 | 0.00 | 0.00 | 0.00 | 40 | 1015.5 |
| 20260905185110 | 36 | 80 | 0.0 | 1.6 | 0.00 | 0.00 | 0.00 | 40 | 1015.6 |
| 20260905184031 | 36 | 134 | 0.0 | 1.6 | 0.00 | 0.00 | 0.00 | 41 | 1015.8 |
| 20260905183051 | 36 | 51 | 0.0 | 3.2 | 0.00 | 0.00 | 0.00 | 41 | 1015.9 |
| 20260905182049 | 36 | 169 | 0.0 | 4.8 | 0.00 | 0.00 | 0.00 | 41 | 1016.2 |